#timestamp,LO_Frequency,Hit,StdDev 
1606993215.8,286046998.5,P
1606993235.6,286046998.2,P
1606993255.4,286046998.1,P
1606993275.3,286046998.1,Y
1606993295.1,286047000.0,P
1606993315.9,286047002.6,P
1606993335.7,286047000.4,N
1606993355.5,286047000.7,N
1606993375.4,286047000.0,N
1606993395.2,286047000.9,N
1606993415.0,286047000.5,N
1606993415.9,286047000.5,N
1606993435.8,286047001.0,N
1606993455.6,286047000.5,N
1606993475.5,286047000.4,N
1606993495.3,286046998.4,N
1606993515.1,286046999.9,N
1606993535.9,286047000.7,N
1606993555.7,286046998.1,N
1606993575.5,286046998.1,N
1606993595.4,286046998.2,N
1606993615.2,286047000.8,N
1606993635.1,286046998.6,N
1606993636.0,286046998.6,N
1606993655.8,286046998.3,N
1606993675.6,286046998.3,N
1606993695.5,286046998.6,N
1606993715.3,286046998.7,N
1606993735.2,286046998.5,N
1606993755.9,286046998.1,N
1606993775.7,286046998.3,N
1606993795.6,286046998.2,N
1606993815.4,286047000.4,N
1606993835.2,286046998.7,N
1606993855.1,286046999.3,N
1606993856.0,286046999.3,N
1606993875.8,286046998.9,N
1606993895.7,286046998.4,N
1606993915.5,286047001.1,N
1606993935.3,286046999.0,N
1606993955.2,286046998.5,N
1606993975.0,286046999.0,N
1606993975.9,286046999.0,N
1606993995.8,286046998.2,N
1606994015.6,286047001.2,N
1606994035.4,286047001.1,N
1606994055.3,286047001.0,N
1606994075.1,286047001.0,N
1606994095.8,286047000.8,N
1606994115.7,286047000.6,N
1606994135.5,286047001.0,N
1606994155.4,286046998.2,N
1606994175.2,286046998.2,N
1606994195.0,286047000.9,N
1606994195.9,286047000.9,N
1606994215.8,286046998.2,N
1606994235.6,286047000.9,N
1606994255.5,286046998.3,N
1606994275.3,286046998.2,N
1606994295.1,286046998.2,N
1606994315.9,286046999.3,N
1606994335.7,286046998.7,N
1606994355.5,286047000.8,N
1606994375.4,286046998.5,N
1606994395.2,286046998.5,N
1606994415.1,286046998.4,N
1606994416.0,286046998.4,N
1606994435.8,286046998.8,N
1606994455.6,286046998.9,N
1606994475.5,286046998.9,N
1606994495.3,286046999.6,N
1606994515.2,286046999.6,N
1606994535.9,286046999.5,N
1606994555.7,286046999.5,N
1606994575.6,286046999.6,N
1606994595.4,286046999.6,N
1606994615.3,286046996.6,Y
1606994635.1,286046999.5,P
1606994655.8,286046999.6,P
1606994705.7,286046997.3,E
1606994715.6,286046999.5,N
1606994735.4,286047000.2,P
1606994755.3,286047000.8,N
1606994775.1,286047000.8,N
1606994795.9,286047000.3,N
1606994815.7,286047000.9,N
1606994835.5,286047000.9,N
1606994855.4,286046998.2,Y
1606994875.2,286046998.2,P
1606994895.1,286046998.4,N
1606994896.0,286046998.4,N
1606994915.8,286046998.7,N
1606994935.6,286046998.3,N
1606994955.5,286046998.3,N
1606994975.3,286046998.3,N
1606994995.2,286046998.9,N
1606995015.9,286046998.3,N
1606995035.7,286046998.9,N
1606995055.6,286047000.8,N
1606995075.4,286046998.6,N
1606995095.2,286046998.1,N
1606995115.1,286046998.3,N
1606995116.0,286046998.3,N
1606995135.8,286046998.8,N
1606995155.7,286047001.2,N
1606995175.5,286046998.5,N
1606995195.3,286046998.8,N
1606995215.2,286046998.9,N
1606995235.0,286046999.3,N
1606995235.9,286046999.3,N
1606995255.8,286046998.1,N
1606995275.6,286046998.8,N
1606995295.4,286046999.3,N
1606995315.3,286046999.4,N
1606995335.1,286046999.5,N
1606995355.8,286046999.0,N
1606995375.7,286046999.1,N
1606995395.5,286046999.5,N
1606995415.4,286046999.1,N
1606995435.2,286046999.1,N
1606995455.0,286046999.3,N
1606995455.9,286046999.3,N
1606995475.8,286046999.2,N
1606995495.6,286046998.5,N
1606995515.4,286046998.5,N
1606995535.3,286046999.4,N
1606995555.1,286046999.2,N
1606995575.9,286046999.0,N
1606995595.7,286046999.2,N
1606995615.5,286046998.9,N
1606995635.4,286046999.4,N
1606995655.2,286046999.4,N
1606995675.0,286046999.0,N
1606995676.0,286046999.0,N
1606995695.8,286046998.2,Y
1606995715.6,286047000.7,P
1606995735.5,286047000.3,N
1606995755.3,286047000.7,N
1606995775.1,286046999.8,N
1606995795.9,286047002.8,Y
1606995815.7,286046999.9,P
1606995835.6,286047000.2,N
1606995855.4,286047002.1,P
1606995875.2,286047002.4,N
1606995895.1,286047002.3,N
1606995896.0,286047002.3,N
1606995915.8,286047002.7,N
1606995935.7,286047002.5,N
1606995955.5,286047003.9,Y
1606995975.3,286046999.9,P
1606995995.2,286046999.9,N
1606996015.0,286047002.8,P
1606996015.9,286047002.8,N
1606996035.8,286047000.1,N
1606996055.6,286047002.2,N
1606996075.4,286047002.3,N
1606996095.3,286047002.4,N
1606996115.1,286047000.2,N
1606996135.8,286047002.7,N
1606996155.7,286047002.2,N
1606996175.5,286047002.6,N
1606996195.4,286047001.7,N
1606996215.2,286047002.1,N
1606996235.0,286047001.6,N
1606996235.9,286047001.6,N
1606996255.8,286047001.7,N
1606996275.6,286047004.2,Y
1606996295.5,286047002.7,P
1606996315.3,286047001.6,P
1606996335.1,286047002.2,P
1606996355.9,286047004.1,Y
1606996375.7,286046999.8,P
1606996395.5,286047002.7,N
1606996415.4,286047002.4,N
1606996435.2,286047002.2,N
1606996455.1,286047004.3,Y
1606996456.0,286047004.3,P
1606996475.8,286047001.0,N
1606996495.6,286046999.8,N
1606996515.5,286047000.2,N
1606996535.3,286047000.4,N
1606996555.1,286047000.5,N
1606996575.9,286047000.2,N
1606996595.7,286046999.9,N
1606996615.6,286046999.8,N
1606996635.4,286047002.5,N
1606996655.2,286047002.7,N
1606996675.1,286047000.1,N
1606996676.0,286047000.1,N
1606996695.8,286046999.8,N
1606996715.7,286047002.4,N
1606996735.5,286047002.7,N
1606996755.3,286047001.9,N
1606996775.2,286047001.9,N
1606996795.0,286047001.5,N
1606996795.9,286047001.5,N
